User: anonymous   Login
Location: Unspecified
(0.0000°N, 0.0000°E)
Time: 08:14:10
(UTC+00:00)
Language:

METEOR M2 - Orbit

View from above orbital plane
View from above orbital plane
View from above satellite
View from above satellite

Ground track
Ground track

The orbit data is extracted from the following two-line orbital elements,

1 40069U 14037A   24171.91749528  .00000139  00000-0  83266-4 0  9996
2 40069  98.4360 166.0333 0005728   3.6749 356.4469 14.20981297516017
Epoch (UTC): 19 June 2024 22:01:11
Eccentricity: 0.0005728
inclination: 98.4360°
perigee height: 818 km
apogee height: 826 km
right ascension of ascending node: 166.0333°
argument of perigee: 3.6749°
revolutions per day: 14.20981297
mean anomaly at epoch: 356.4469°
orbit number at epoch: 51601

The dashed part of the orbit path shows where the satellite is in the earth's shadow,  

DLR